Location: U-46 Planetarium
(42.0300°N, 88.2740°W)
Time: 07:53:35
(UTC-05:00)

Daily predictions for brighter satellites

Satellite Brightness Start Highest point End
(mag) Time Altitude Azimuth Time Altitude Azimuth Time Altitude Azimuth
ERS-1 Rocket 3.1 20:44:35 10° SSE 20:49:32 61° ENE 20:54:31 10° N
Cosmos 909 Rocket 4.3 20:44:15 10° SSW 20:50:33 59° ESE 20:58:05 10° NE
PSLV R/B 3.5 20:51:39 10° W 20:55:03 61° S 20:58:31 10° ESE
Abrixas rocket 3.4 20:57:30 10° WNW 21:00:40 35° SW 21:03:48 10° SSE
Coronas F rocket 1.1 20:59:12 10° S 21:01:49 65° E 21:04:27 10° NNE
CZ-4 DEB 3.3 20:59:50 10° S 21:02:58 60° W 21:06:06 10° NNW
USA 234 4.4 21:02:44 10° ENE 21:07:14 19° ESE 21:11:42 10° SSE
BREEZE-M DEB (TANK) 2.7 21:06:36 10° WSW 21:08:59 74° NNW 21:13:55 10° ENE
deb Chang Zheng 4 3.7 21:05:15 10° NNE 21:09:36 54° E 21:13:55 10° S
SL-8 R/B 3.7 21:06:19 10° SW 21:11:07 71° SSE 21:15:54 10° ENE
SL-08 ROCKET BODY 4.4 21:06:04 10° S 21:12:05 72° E 21:18:02 10° NNE
Cosmos 2184 Rocket 4.0 21:07:47 10° S 21:13:57 83° E 21:20:09 10° N
COSMOS 2406 3.3 21:08:44 10° NNW 21:14:32 84° ENE 21:20:15 10° SSE
Cosmos 1908 Rocket 4.3 21:11:13 10° SSE 21:15:10 34° E 21:19:10 10° NNE
Cosmos 1733 Rocket 3.1 21:15:46 10° S 21:20:11 90° E 21:24:36 10° N
Cosmos 1378 Rocket 4.3 21:17:20 10° N 21:21:17 34° ENE 21:24:19 15° SE
ATLAS 5 CENTAUR R/B 2.5 21:16:56 10° NW 21:22:58 82° WSW 21:28:52 13° SSE
EO 1 Delta rocket 4.4 21:16:43 10° NNE 21:23:14 63° E 21:28:23 10° S
ARGOS 4.1 21:19:51 13° SE 21:23:53 32° ENE 21:28:35 10° N
Cosmos 2056 Rocket 3.4 21:19:01 10° SSW 21:24:12 87° ESE 21:29:22 10° NNE
CZ-3C R/B 4.2 21:05:28 10° SW 21:24:29 19° SSW 21:30:50 11° SSE
Cosmos 1184 Rocket 4.4 21:24:37 16° ESE 21:25:40 19° E 21:28:06 10° NE
Meteor 1-10 Rocket 4.3 21:20:00 10° N 21:25:53 88° W 21:31:37 10° S
Cosmos 1371 Rocket 4.5 21:21:03 10° SSW 21:26:20 67° WNW 21:31:37 10° NNE
Cosmos 1174 4.5 21:24:52 10° NNW 21:27:52 29° NE 21:29:36 17° ESE
Cosmos 1862 3.8 21:28:46 13° SSE 21:32:09 42° E 21:36:01 10° NNE
Cosmos 1356 Rocket 4.4 21:28:54 10° SSW 21:32:59 50° WNW 21:37:10 10° N
Cosmos 2278 Rocket 2.9 21:28:17 10° SSE 21:33:18 33° ESE 21:38:20 10° NE
Cosmos 1844 3.8 21:30:37 10° S 21:36:12 55° ESE 21:41:51 10° NNE
CENTAUR R/B 3.5 21:28:42 10° NW 21:36:25 60° WSW 21:44:20 11° SSE
Nimbus 7 Rocket 4.4 21:32:52 10° NNE 21:38:50 86° ESE 21:44:48 10° SSW
SL-27 R/B 2.7 21:36:23 10° NNW 21:40:02 69° WSW 21:42:44 17° S
Cosmos 2084 4.1 21:37:52 14° S 21:40:23 27° ESE 21:43:41 10° ENE
Cosmos 1825 2.6 21:37:57 18° SSE 21:40:28 44° E 21:44:07 10° NNE
COSMOS 2487 3.6 21:40:03 10° N 21:43:19 31° ENE 21:44:48 22° ESE
Cosmos 1844 Rocket 2.6 21:38:28 10° SSW 21:44:08 85° ESE 21:49:49 10° NNE
COS B Rocket 3.3 21:39:56 10° N 21:44:12 79° E 21:47:18 16° S
H-2A R/B 2.7 21:41:26 10° S 21:45:41 54° W 21:49:53 10° NNW
NOSS 2-2 (D) 4.3 21:44:20 10° SW 21:48:25 56° NW 21:53:13 10° NNE
CZ-4 SHROUD 3.1 21:50:15 25° S 21:51:53 83° WSW 21:55:00 10° NNW
Cosmos 2082 Rocket 3.7 21:47:27 10° N 21:52:03 24° NE 21:55:25 15° E
YAOGAN 6 2.4 21:52:00 25° SSE 21:53:56 86° ENE 21:57:28 10° N
Cosmos 1408 2.5 21:52:39 21° S 21:54:58 67° E 21:58:37 10° NNE
Meteor 1-27 Rocket 3.7 21:50:49 10° NNW 21:56:26 83° W 22:00:52 16° S
MetOp-A 4.3 21:55:26 16° S 21:59:48 76° WSW 22:05:11 10° NNW
Cosmos 1782 4.1 21:56:27 10° NNW 22:00:13 38° W 22:03:57 10° SSW
Envisat 4.1 21:57:38 10° SSW 22:02:25 42° W 22:07:14 10° NNW
Nadezhda 3 Rocket 4.1 21:56:33 10° N 22:02:55 82° W 22:08:16 15° S
UNK 4.4 21:57:03 10° NNE 22:03:21 85° ESE 22:09:21 10° SSW
Cosmos 2297 4.5 22:02:58 25° SE 22:04:48 31° ESE 22:09:45 10° NE
Okean 2 Rocket 3.1 22:02:50 25° SSE 22:05:13 59° E 22:09:34 10° NNE
Landsat 7 4.3 22:05:01 28° SE 22:07:04 44° ENE 22:11:35 10° N
H-2A R/B 2.8 22:05:40 25° ESE 22:08:14 41° ENE 22:13:14 10° N
PSLV R/B 4.2 22:07:12 23° SSW 22:08:35 39° W 22:11:23 10° NNW
Cosmos 1238 Rocket 2.4 22:06:11 10° NNW 22:09:18 73° W 22:10:41 33° S
Cosmos 1242 Rocket 2.8 22:06:15 10° N 22:09:49 52° ENE 22:10:42 41° ESE
Atlas Centaur 2 3.4 22:08:43 10° SW 22:09:16 12° SSW 22:09:16 12° SSW
ERBS 4.2 22:07:58 10° WNW 22:10:44 22° SW 22:11:51 19° SSW
Cosmos 1420 Rocket 4.1 22:08:59 23° S 22:12:02 52° ESE 22:17:07 10° NNE
SPOT 5 3.9 22:08:05 13° S 22:12:35 48° W 22:17:47 10° NNW
Cosmos 1606 3.7 22:10:10 10° NNW 22:13:56 44° W 22:16:30 18° SSW
BREEZE-M DEB 4.1 22:11:05 10° SW 22:15:12 79° SSE 22:16:21 34° ENE
NOAA 11 4.2 22:14:13 26° SSE 22:17:28 90° N 22:23:01 10° NNW
Cosmos 2341 Rocket 4.2 22:14:44 10° SSW 22:21:03 75° W 22:27:21 10° N
Cosmos 407 Rocket 4.5 22:16:45 10° NNW 22:21:42 42° WSW 22:25:16 18° SSW
Terra 2.3 22:21:17 33° ESE 22:22:49 44° ENE 22:27:20 10° N
SPOT 1/Viking Rocket 3.8 22:20:10 24° S 22:23:17 68° WSW 22:28:30 10° NNW
IGS 5A 4.1 22:25:17 36° E 22:26:05 40° ENE 22:29:59 10° N
Cosmos 1452 Rocket 4.0 22:22:16 10° SSW 22:27:27 61° WNW 22:32:41 10° NNE
Cosmos 1782 Rocket 3.9 22:24:26 19° SSW 22:27:34 64° W 22:32:01 10° N
Timation 2 Rocket 3.8 22:26:27 10° NNW 22:32:30 77° ENE 22:35:01 37° SE
Cosmos 614 Rocket 4.1 22:27:48 10° NNW 22:32:52 61° ENE 22:34:27 41° SE
Cosmos 1140 Rocket 3.4 22:30:53 10° NNW 22:36:03 82° WSW 22:37:56 40° S
DNEPR-1 R/B 3.8 22:34:21 10° NNW 22:39:50 79° NE 22:41:08 48° SE
Cosmos 1975 Rocket 3.9 22:39:00 10° NNW 22:43:07 44° W 22:44:54 28° SW
BREEZE-M DEB (TANK) 4.0 22:41:24 10° NW 22:43:14 21° N 22:46:09 10° ENE
CARTOSAT-1 3.5 22:44:45 59° SE 22:45:31 78° ENE 22:49:51 10° N
SL-8 Rocket 4.0 22:41:37 23° SSW 22:45:44 81° W 22:52:01 10° N
CZ-4B R/B 4.4 22:44:53 10° N 22:49:38 44° WNW 22:53:55 12° SW
Meteor 1-25 Rocket 4.4 22:47:59 43° SSE 22:49:38 58° E 22:55:22 10° NNE
USA 234 3.1 22:44:18 10° NE 22:50:53 78° SE 22:57:24 10° SW
DMSP B5D2-2 3.9 22:49:52 10° NNE 22:55:06 78° ESE 22:56:39 47° S
Cosmos 1536 Rocket 3.5 22:51:28 10° N 22:55:57 77° E 22:56:28 67° SE
Meteor 2-19 Rocket 4.4 22:54:23 43° SSE 22:56:18 65° E 23:02:21 10° NNE
Meteor 1-18 Rocket 4.3 22:51:19 10° N 22:57:13 77° ENE 22:59:01 47° SSE
Meteor 1-14 Rocket 4.4 22:55:29 29° SSW 22:58:28 73° W 23:04:06 10° N
Cosmos 1850 Rocket 4.2 22:55:22 10° NNW 23:00:39 67° WSW 23:02:05 47° SSW
ARGOS 4.4 23:01:22 22° SW 23:04:03 34° W 23:08:54 10° NNW
Meteor 2-8 Rocket 4.4 23:00:42 10° N 23:06:52 87° W 23:08:52 46° S
Cosmos 2151 Rocket 4.0 23:09:29 47° SW 23:10:31 61° W 23:15:02 10° N
Cosmos 2278 Rocket 3.6 23:12:05 10° SW 23:17:18 37° WNW 23:22:33 10° N
Spot 2 3.9 23:15:11 10° NNE 23:19:37 86° WNW 23:19:37 86° WNW
Timation 1 Rocket 4.3 23:19:05 57° SSE 23:19:54 63° ESE 23:25:50 10° NNE
Cosmos 1833 Rocket 2.5 23:16:03 10° NNW 23:21:43 89° ENE 23:22:38 64° SSE
Cosmos 2366 rocket 4.5 23:21:19 28° SW 23:24:32 56° WNW 23:30:45 10° N
Meteor 1-11 Rocket 4.1 23:27:54 48° ESE 23:28:15 49° E 23:33:50 10° NNE
ALOS 2 4.2 23:28:27 24° ENE 23:28:27 24° ENE 23:31:51 10° NNE
Cosmos 1812 3.3 23:24:36 10° NNW 23:27:53 57° NW 23:27:53 57° NW
Gbstr 26 Del rocket 4.2 23:30:17 10° NW 23:34:45 37° NNE 23:35:48 32° NE
Cosmos 1331 Rocket 3.8 23:36:04 80° ESE 23:36:09 80° ESE 23:41:20 10° NNE
Cosmos 2082 Rocket 2.5 23:30:56 10° NNW 23:36:30 55° WSW 23:37:16 51° SW
CZ-4B R/B 4.2 23:38:39 12° NE 23:38:39 12° NE 23:39:06 10° NNE
USA 229 DEB 3.7 23:30:51 10° NW 23:37:58 78° WSW 23:39:43 54° SSE
USA 229 3.7 23:30:57 10° NW 23:38:04 78° WSW 23:39:49 55° SSE
Okean 1-7 Rocket 3.7 23:35:17 10° N 23:39:26 75° N 23:39:26 75° N
Cosmos 1110 Rocket 3.9 23:39:23 73° SW 23:39:53 84° WNW 23:45:09 10° NNE
Meteor 2-21 4.4 23:41:01 61° SE 23:41:47 67° E 23:47:56 10° NNE
Okean 1 Rocket 3.2 23:42:15 73° NNW 23:42:15 73° NNW 23:46:26 10° N
Cosmos 1809 Rocket 4.4 23:43:08 63° SE 23:43:54 70° E 23:50:05 10° NNE
Cosmos 1300 Rocket 3.9 23:45:04 62° WNW 23:45:04 62° WNW 23:49:19 10° N
Cosmos 1536 4.3 23:47:24 30° NE 23:47:24 30° NE 23:49:45 10° NNE
Iridium 4 Rocket 3.8 23:40:12 10° N 23:46:02 68° E 23:46:34 64° ESE
Cosmos 1025 Rocket 3.8 23:41:49 10° N 23:45:25 46° NE 23:45:25 46° NE
H-2A R/B 3.6 23:46:19 24° WSW 23:47:43 27° W 23:52:13 10° NW
Cosmos 1400 Rocket 4.1 23:51:04 37° NE 23:51:04 37° NE 23:53:46 10° NNE
